Location: Unspecified
(42.3650°N, 71.1030°W)
Time: 17:16:17
(UTC+00:00)

Tiros 1 - Pass Details

Date: 29 June 2024
Orbit: 624 x 656 km, 48.4° (Epoch: 13 July)

Event Time Altitude Azimuth Distance (km) Brightness Sun altitude
Rises 01:13:41 0° 211° (SSW) 2,893 10.4 -7.9°
Reaches altitude 10° 01:16:11 10° 200° (SSW) 1,987 9.4 -8.3°
Maximum altitude 01:20:10 30° 139° (SE) 1,115 7.8 -8.8°
Drops below altitude 10° 01:24:10 10° 78° (ENE) 1,994 9.3 -9.3°
Sets 01:26:42 0° 68° (ENE) 2,905 10.3 -9.7°
